Flag for Hungary Weather past 2 weeks in Sopron, Hungary

Now
67 °F

Overcast.


Feels Like: 67 °F
Forecast: 56 / 73 °F
Wind: 3 mph from North

Location: Eisenstadt

Current Time: Aug 30, 2014 at 12:29:28 PM

Latest Report: Aug 30, 2014 at 11:00 AM


Visibility: 9 mi

Pressure: 30.08 "Hg

Humidity: 75%

Dew point: 59 °F

Location of SopronLocation

Historic Weather in Sopron — Graph

°F

Sopron temperature yesterday

Maximum temperature yesterday: 77 °F (at 4:00 PM)
Minimum temperature yesterday: 51 °F (at 6:00 AM)
Average temperature yesterday: 63 °F

Past Weeks' High & Low Weather Summary

 TemperatureHumidityPressure
High78 °F (Aug 18, 3:00 PM)95% (Aug 15, 9:00 PM)30.13 "Hg (Aug 15, 9:00 PM)
Low49 °F (Aug 25, 5:00 AM)40% (Aug 28, 3:00 PM)29.72 "Hg (Aug 27, 4:00 AM)
Average63 °F73%29.96 "Hg
* Reported Aug 15 11:00 AM — Aug 30 11:00 AM, Sopron, Weather by CustomWeather, © 2014

Note: Actual official high and low records may vary slightly from our data, if they occured in-between our weather recording intervals... More about our weather records

Advertising

Sopron weather history for previous 24 hours

 ConditionsComfort  
Time TempWeatherWind HumidityBarometerVisibility
11:00 AM
Aug 30
67 °FOvercast.3 mph75%30.08 "Hg9 mi
10:00 AM65 °FMild.1 mph81%30.07 "HgN/A
9:00 AM64 °FMild.No wind83%30.06 "HgN/A
8:00 AM61 °FOvercast.1 mph87%30.06 "Hg9 mi
7:00 AM60 °FOvercast.1 mph90%30.04 "Hg9 mi
6:00 AM60 °FPassing clouds.2 mph90%30.04 "Hg9 mi
5:00 AM59 °FClear.1 mph91%30.04 "Hg9 mi
4:00 AM59 °FClear.2 mph91%30.04 "Hg9 mi
3:00 AM58 °FCool.1 mph92%30.04 "HgN/A
2:00 AM58 °FCool.3 mph90%30.03 "HgN/A
1:00 AM59 °FCool.3 mph90%30.03 "HgN/A
12:00 AM60 °FCool.3 mph87%30.03 "HgN/A
11:00 PM
Aug 29
62 °FPassing clouds.2 mph85%30.03 "Hg12 mi
9:00 PM63 °FMild.2 mph83%30.03 "HgN/A
8:00 PM66 °FPassing clouds.1 mph76%30.02 "Hg12 mi
7:00 PM73 °FScattered clouds.3 mph58%30.00 "Hg12 mi
6:00 PM74 °FMild.5 mph54%30.01 "HgN/A
5:00 PM77 °FOvercast.6 mph49%30.01 "Hg12 mi
4:00 PM77 °FMild.5 mph48%30.01 "HgN/A
3:00 PM77 °FMild.3 mph47%30.02 "HgN/A
2:00 PM76 °FScattered clouds.3 mph52%30.03 "Hg12 mi
1:00 PM72 °FMild.2 mph58%30.05 "HgN/A
12:00 PM69 °FMild.2 mph64%30.07 "HgN/A
Weather by CustomWeather, © 2014

See weather overviewHow to use our weather pages